#timestamp,LO_Frequency,Hit,StdDev 
1515722415.6,286047000.4,N
1515722435.4,286046999.8,N
1515722455.2,286047001.7,N
1515722475.1,286047004.3,N
1515722476.0,286047004.3,N
1515722525.8,286047006.0,E
1515722535.8,286047002.1,N
1515722555.6,286046999.2,P
1515722575.4,286046996.5,N
1515722595.3,286046999.2,N
1515722615.1,286046999.0,N
1515722635.8,286046998.6,N
1515722655.7,286046996.9,N
1515722675.5,286046999.6,N
1515722695.4,286046999.3,N
1515722715.2,286046998.1,N
1515722735.0,286046998.9,N
1515722735.9,286046998.9,N
1515722755.8,286046998.4,N
1515722775.6,286047000.9,N
1515722795.5,286047002.8,N
1515722815.3,286047002.7,N
1515722835.1,286046998.2,N
1515722855.9,286046998.9,N
1515722875.7,286046999.1,N
1515722895.5,286046999.6,N
1515722915.4,286046997.5,N
1515722935.2,286046997.7,N
1515722955.1,286046996.7,N
1515722956.0,286046996.7,N
1515722975.8,286046997.8,N
1515722995.6,286046997.4,N
1515723015.5,286046997.6,N
1515723035.3,286046995.5,N
1515723055.2,286046995.2,N
1515723075.9,286046997.0,N
1515723095.7,286046997.0,N
1515723115.6,286046998.0,N
1515723135.4,286046995.5,N
1515723155.3,286046995.9,N
1515723175.1,286046995.8,N
1515723176.0,286046995.8,N
1515723195.8,286046995.3,N
1515723215.7,286046993.8,Y
1515723235.4,286046996.2,P
1515723255.3,286046995.5,P
1515723275.1,286046993.3,P
1515723276.0,286046993.3,Y
1515723295.8,286046999.4,P
1515723315.7,286046998.7,N
1515723335.5,286047001.2,N
1515723355.3,286047000.7,N
1515723375.2,286046998.5,N
1515723395.0,286046998.2,N
1515723395.9,286046998.2,N
1515723415.8,286046999.3,N
1515723435.6,286046999.3,N
1515723455.4,286046999.6,N
1515723475.3,286047001.0,N
1515723495.1,286047002.8,N
1515723515.9,286047000.5,N
1515723535.7,286047000.0,N
1515723555.5,286046998.5,N
1515723575.4,286046997.0,N
1515723595.2,286046996.5,N
1515723615.0,286046999.5,N
1515723615.9,286046999.5,N
1515723635.8,286046996.7,N
1515723655.6,286046997.9,N
1515723675.5,286046997.8,N
1515723695.3,286046994.9,Y
1515723715.1,286046999.2,P
1515723735.9,286046998.1,P
1515723755.7,286046998.9,N
1515723775.6,286046996.9,Y
1515723795.4,286046996.7,P
1515723815.2,286046997.9,N
1515723835.1,286046995.7,P
1515723836.0,286046995.7,Y
1515723855.8,286047000.8,P
1515723875.7,286047001.1,N
1515723895.5,286047000.9,N
1515723915.3,286046999.9,N
1515723935.2,286047000.2,N
1515723955.0,286047002.7,N
1515723955.9,286047002.7,N
1515723975.8,286047001.0,N
1515723995.6,286046998.1,N
1515724015.4,286046998.2,N
1515724035.3,286046998.2,N
1515724055.1,286047001.1,N
1515724075.8,286046999.0,N
1515724095.7,286046999.1,N
1515724115.5,286046999.5,N
1515724135.4,286046997.4,N
1515724155.2,286046999.0,N
1515724175.0,286047000.9,N
1515724176.0,286047000.9,N
1515724195.8,286046998.3,N
1515724215.6,286046996.6,N
1515724235.5,286046999.3,N
1515724255.3,286046999.4,N
1515724275.1,286047001.2,N
1515724295.9,286046999.6,N
1515724315.7,286046996.7,N
1515724335.6,286046997.5,N
1515724355.4,286046997.2,N
1515724375.2,286046996.8,N
1515724395.1,286046995.4,N
1515724396.0,286046995.4,N
1515724415.8,286046996.8,N
1515724435.6,286046999.6,N
1515724455.5,286046997.1,N
1515724475.3,286046996.1,N
1515724495.2,286046997.2,N
1515724515.9,286046996.5,N
1515724535.7,286046997.5,N
1515724555.6,286046997.2,N
1515724575.4,286046997.3,N
1515724595.3,286046994.9,Y
1515724615.1,286046999.0,P
1515724616.0,286046999.0,N
1515724635.8,286046999.1,N
1515724655.7,286047001.2,N
1515724675.5,286047001.0,N
1515724695.3,286046998.5,N
1515724715.2,286046996.5,Y
1515724735.0,286046996.8,P
1515724735.9,286046996.8,N
1515724755.8,286046998.6,N
1515724775.6,286047001.2,N
1515724795.4,286047001.1,N
1515724815.3,286047000.9,N
1515724835.1,286046998.2,N
1515724855.9,286046998.5,N
1515724875.7,286047000.8,N
1515724895.5,286046998.2,N
1515724915.6,286046999.6,N
1515724935.4,286046999.4,N
1515724955.2,286046999.1,N
1515724975.1,286046996.5,N
1515724976.0,286046996.5,N
1515724995.8,286046997.9,N
1515725015.7,286046996.5,N
1515725035.5,286046999.5,N
1515725055.3,286046997.2,N
1515725075.2,286046999.1,N
1515725095.0,286046999.5,N
1515725095.9,286046999.5,N
1515725115.8,286046995.0,Y
1515725135.6,286046996.5,P
1515725155.4,286046998.6,N
1515725175.3,286046998.6,N
1515725195.1,286046998.7,N
1515725215.8,286046999.5,N
1515725235.7,286047000.9,N
1515725255.5,286046999.7,N
1515725275.4,286046999.8,N
1515725295.2,286047000.7,N
1515725315.0,286047011.9,Y
1515725315.9,286047000.0,P
1515725335.8,286047000.1,N
1515725355.6,286047000.6,N
1515725375.5,286046999.7,N
1515725395.3,286047001.3,N
1515725415.1,286047001.3,N
1515725435.9,286047001.6,N
1515725455.7,286047002.0,N
1515725475.6,286047004.3,Y
1515725495.4,286047002.5,P
1515725515.2,286047000.9,N
1515725535.1,286047000.6,N
1515725536.0,286047000.6,N
1515725555.8,286046999.9,N
1515725575.6,286047002.6,Y
1515725595.5,286046999.8,P
1515725615.3,286047000.8,N
1515725635.2,286047001.0,N
1515725655.9,286047001.2,N
1515725675.7,286047000.6,N
1515725695.6,286047002.5,Y
1515725715.4,286047002.0,P
1515725735.2,286047002.0,P
1515725755.1,286046999.7,N
1515725756.0,286046999.7,N
1515725775.8,286047002.8,N
1515725795.7,286047001.0,N
1515725815.5,286046999.9,N
1515725835.3,286047000.2,N
1515725855.2,286047002.6,N
1515725875.0,286047002.0,N
1515725875.9,286047002.0,N
1515725895.7,286047002.3,N
1515725915.6,286047000.2,N
1515725935.4,286047002.4,N
1515725955.3,286047004.4,Y
1515725975.1,286047002.5,P
1515725995.8,286047002.5,P
